This is the latest recevied weather packets stored in our database for station/object OH7GGX-14. If no packets are shown the sender has not sent any weather packets the latest 1 day(s).
| Time | Temp. | Humidity | Pressure | Rain* | Wind** | Luminosity | Snow |
|---|---|---|---|---|---|---|---|
| 1778001692 | 5.56° C | 82% | 1004.1 hPa | 0 mm | 0 m/s | - | - |
| 1778001092 | 6.11° C | 79% | 1004.1 hPa | 0 mm | 0 m/s | - | - |
| 1778000492 | 6.11° C | 77% | 1004.1 hPa | 0 mm | 0 m/s | - | - |
| 1777999892 | 6.67° C | 76% | 1004.1 hPa | 0 mm | 0.89 m/s, 205° | - | - |
| 1777999292 | 6.67° C | 73% | 1004.1 hPa | 0 mm | 0.89 m/s, 232° | - | - |
| 1777998692 | 6.67° C | 72% | 1004.1 hPa | 0 mm | 0 m/s | - | - |
| 1777998092 | 6.67° C | 72% | 1004 hPa | 0 mm | 0.89 m/s, 348° | - | - |
| 1777997492 | 7.22° C | 74% | 1004 hPa | 0 mm | 0.89 m/s, 230° | - | - |
| 1777996893 | 7.22° C | 74% | 1003.7 hPa | 0 mm | 1.34 m/s, 227° | - | - |
| 1777996293 | 7.22° C | 75% | 1003.7 hPa | 0 mm | 1.79 m/s, 241° | - | - |
| 1777995693 | 7.22° C | 76% | 1003.5 hPa | 0 mm | 0.89 m/s, 12° | - | - |
| 1777995093 | 7.22° C | 78% | 1003.3 hPa | 0 mm | 1.79 m/s, 202° | - | - |
| 1777994493 | 6.67° C | 79% | 1003.4 hPa | 0 mm | 1.34 m/s, 192° | - | - |
| 1777993893 | 6.67° C | 80% | 1003.4 hPa | 0 mm | 0.89 m/s, 213° | - | - |
| 1777993293 | 7.22° C | 82% | 1003.3 hPa | 0 mm | 1.79 m/s, 175° | - | - |
| 1777992693 | 7.22° C | 80% | 1003.2 hPa | 0 mm | 3.58 m/s, 222° | - | - |
| 1777992093 | 7.22° C | 77% | 1003.4 hPa | 0 mm | 2.24 m/s, 189° | - | - |
| 1777991493 | 7.78° C | 77% | 1003.1 hPa | 0 mm | 0 m/s | - | - |
| 1777990893 | 7.78° C | 80% | 1003 hPa | 0 mm | 2.24 m/s, 227° | - | - |
| 1777990293 | 7.22° C | 85% | 1003 hPa | 0 mm | 2.24 m/s, 233° | - | - |
| 1777989693 | 7.22° C | 88% | 1003 hPa | 0 mm | 1.34 m/s, 191° | - | - |
| 1777989093 | 7.22° C | 84% | 1003.1 hPa | 0 mm | 3.13 m/s, 199° | - | - |
| 1777988493 | 7.78° C | 74% | 1002.7 hPa | 0 mm | 1.34 m/s, 199° | - | - |
| 1777987893 | 8.33° C | 74% | 1002.4 hPa | 0 mm | 2.24 m/s, 216° | - | - |
| 1777987293 | 8.33° C | 73% | 1002.3 hPa | 0 mm | 3.58 m/s, 216° | - | - |
* Rain latest hour (hover to see other rain measurements)
** Current wind speed in m/s (hover to see current wind gust speed)